{"data":{"norad_id":52856,"intl_designator":"2022-062AC","name":"STARLINK-4201","alt_names":[],"object_type":"PAYLOAD","status":"ACTIVE","operator":null,"country":"US","launch_date":"2022-06-17","launch_site_code":"AFETR","launch_vehicle":null,"mission":null,"orbit_class":"UNKNOWN","rcs_meters":null,"size_class":null,"mass_kg":null,"dimensions":null,"purposes":["comms"],"wikipedia_slug":null,"has_3d_model":false,"image_url":null,"decayed_at":null,"tle_current":{"epoch":"2026-05-25T03:18:28.334880Z","epoch_age_seconds":59650,"freshness":"FRESH","line1":"1 52856U 22062AC  26145.13782795 -.00002411  00000+0 -13339-3 0  9999","line2":"2 52856  53.2148  40.9771 0001545  89.3569 270.7601 15.08847848217460","mean_motion":15.08847848,"eccentricity":0.0001545,"inclination_deg":53.2148,"raan_deg":40.9771,"arg_perigee_deg":89.3569,"mean_anomaly_deg":270.7601,"bstar":-0.00013339,"rev_number":21746,"period_min":95.437058276535,"perigee_km":538.65059205779,"apogee_km":540.78820968565,"semimajor_km":6917.8564008717,"source":"CELESTRAK","updated_at":"2026-05-25T13:38:17.246329Z"}}}